This is the latest recevied weather packets stored in our database for station/object WV6L-13. If no packets are shown the sender has not sent any weather packets the latest 10 day(s).
| Time | Temp. | Humidity | Pressure | Rain* | Wind** | Luminosity | Snow |
|---|---|---|---|---|---|---|---|
| 1777795794 | 13.33° C | 25% | 923.7 hPa | - | - | - | - |
| 1777795494 | 13.33° C | 25% | 923.9 hPa | - | - | - | - |
| 1777795194 | 13.33° C | 25% | 923.8 hPa | - | - | - | - |
| 1777794894 | 13.33° C | 26% | 923.9 hPa | - | - | - | - |
| 1777794295 | 13.33° C | 28% | 923.8 hPa | - | - | - | - |
| 1777793994 | 13.89° C | 25% | 923.9 hPa | - | - | - | - |
| 1777793694 | 14.44° C | 24% | 923.9 hPa | - | - | - | - |
| 1777793394 | 14.44° C | 24% | 923.9 hPa | - | - | - | - |
| 1777793094 | 14.44° C | 24% | 924.1 hPa | - | - | - | - |
| 1777792794 | 14.44° C | 23% | 923.9 hPa | - | - | - | - |
| 1777792494 | 15° C | 23% | 923.8 hPa | - | - | - | - |
| 1777792195 | 15.56° C | 22% | 924 hPa | - | - | - | - |
| 1777791894 | 15.56° C | 22% | 923.9 hPa | - | - | - | - |
| 1777791594 | 16.11° C | 21% | 924 hPa | - | - | - | - |
| 1777791294 | 16.11° C | 21% | 924.1 hPa | - | - | - | - |
| 1777790995 | 15.56° C | 21% | 924.2 hPa | - | - | - | - |
| 1777790694 | 16.11° C | 21% | 924.1 hPa | - | - | - | - |
| 1777790394 | 16.67° C | 20% | 924.1 hPa | - | - | - | - |
| 1777790094 | 17.22° C | 20% | 924 hPa | - | - | - | - |
| 1777789795 | 16.67° C | 20% | 924.3 hPa | - | - | - | - |
| 1777789494 | 17.22° C | 20% | 924.1 hPa | - | - | - | - |
| 1777789194 | 17.78° C | 19% | 924.2 hPa | - | - | - | - |
| 1777788894 | 17.22° C | 19% | 924 hPa | - | - | - | - |
| 1777788594 | 17.78° C | 19% | 924.1 hPa | - | - | - | - |
| 1777788294 | 18.89° C | 18% | 924 hPa | - | - | - | - |
* Rain since midnight (hover to see other rain measurements)
** Current wind speed in m/s (hover to see current wind gust speed)